Location: Liberty
(32.6612°N, 88.7589°W)
Time: 07:23:31
(UTC+00:00)

BlueWalker 3 - Visible Passes

Search period start: 04 December 2022 00:00
Search period end: 14 December 2022 00:00
Orbit: 501 x 519 km, 53.2° (Epoch: 03 December)

Date Brightness Start Highest point End Pass type
(mag) Time Alt. Az. Time Alt. Az. Time Alt. Az.
08 Dec 4.1 23:50:11 10° N 23:51:16 11° NNE 23:51:16 11° NNE visible
09 Dec 4.0 23:31:34 10° N 23:33:10 12° NNE 23:34:14 11° NE visible
10 Dec 4.6 01:08:26 10° NW 01:09:07 15° NW 01:09:07 15° NW visible
11 Dec 3.2 00:50:01 10° NW 00:52:21 35° NW 00:52:21 35° NW visible
12 Dec 1.9 00:31:35 10° NW 00:35:28 80° SW 00:36:00 64° SSE visible
13 Dec 2.1 00:13:09 10° NW 00:17:02 74° SW 00:20:16 14° SE visible
